Regional Weather Roundup
Issued by NWS Spokane, WA

Home | Current Version | Previous Version | Text Only | Print | Product List | Glossary On
Versions: 1 2 3 4 5 6 7 8 9 10 11 12 13 14 15 16 17 18 19 20 21 22 23 24 25 26 27 28 29 30 31 32 33 34 35 36 37 38 39 40 41 42 43 44 45 46 47 48 49 50
000
NZUS01 KOTX 280700
RWROTX

Eastern Washington/Northern Idaho Roundup
National Weather Service, Spokane WA
1200 AM PDT TUE MAR 28 2017

Note: "fair" indicated few or no clouds below 12,000 feet with no
significant weather and/or obstructions to visibility.

...Northeast Washington and Northern Idaho Panhandle...

CITY           SKY/WX    TMP DP  RH WIND       PRES   REMARKS
Spokane Intl   PTCLDY    38  34  85 S12       30.15R
Spokane Downto PTCLDY    42  36  79 CALM      30.17R
Coeur d Alene  MOCLDY    39  36  89 S7        30.17R
Deer Park      CLEAR     37  33  85 SE7       30.15S

...Southeast Washington and southern Idaho Panhandle...

CITY           SKY/WX    TMP DP  RH WIND       PRES   REMARKS
Walla Walla    MOCLDY    46  36  68 S13       30.25R
Pullman/Moscow CLEAR     40  31  70 SW7       30.21R
Lowell           N/A     40  38  93 CALM      30.28R
Grangeville    CLOUDY    36  34  93 W6        30.20S

...Columbia Basin...

CITY           SKY/WX    TMP DP  RH WIND       PRES   REMARKS
Ephrata        PTCLDY    45  28  51 W9        30.15R
Moses Lake     PTCLDY    42  31  64 SW3       30.17R
Pasco          MOCLDY    47  36  65 SW12      30.24R
Hermiston      MOCLDY    46  38  73 SW14G22   30.25R
Pendleton      MOCLDY    42  35  76 S9        30.25S

...East Slopes Cascades...

CITY           SKY/WX    TMP DP  RH WIND       PRES   REMARKS
The Dalles     CLOUDY    49  39  68 W6        30.28S
Yakima         CLOUDY    43  34  70 N5        30.21R
Ellensburg     MOCLDY    42  33  70 NW12      30.18F
Wenatchee      MOCLDY    43  33  68 VRB5      30.17R
Omak           PTCLDY    43  29  57 S6        30.12R
Sunnyside      PTSUNNY   38  34  85 CALM      30.23R

...Southern British Columbia...

CITY           SKY/WX    TMP DP  RH WIND       PRES   REMARKS

...Western Montana...

CITY           SKY/WX    TMP DP  RH WIND       PRES   REMARKS
Kalispell      CLOUDY    37  33  85 S7        30.12R
Missoula       CLOUDY    36  33  89 N6        30.17S

...Neighboring Cities...

CITY           SKY/WX    TMP DP  RH WIND       PRES   REMARKS
Seattle        LGT RAIN  46  42  86 S13       30.27R
Portland       DRIZZLE   47  42  83 S7        30.34F
Boise          CLEAR     41  32  70 NW10      30.18S
Great Falls    PTCLDY    36  28  73 SW13      30.04R



USA.gov is the U.S. government's official web portal to all federal, state and local government web resources and services.